Home   Weather   Escondido   Past weeks

Flag for USA Past Weather in Escondido, California, USA — Yesterday and Last 2 Weeks

Now
63 °F

Scattered clouds.


Feels Like: 63 °F
Forecast: 48 / 64 °F
Wind: No wind

Location: Ramona Airport

Current Time: Feb 20, 2017 at 12:28:43 pm

Latest Report: Feb 20, 2017 at 11:53 am


Visibility: 10 mi

Pressure: 30.24 "Hg

Humidity: 70%

Dew Point: 53 °F

Location of EscondidoLocation

Past Weather in Escondido — Graph

°F

Escondido Temperature Yesterday

Maximum temperature yesterday: 53 °F (at 12:53 pm)
Minimum temperature yesterday: 45 °F (at 10:53 pm)
Average temperature yesterday: 50 °F

High & Low Weather Summary for the Past Weeks

 TemperatureHumidityPressure
High81 °F (Feb 9, 1:53 pm)100% (Feb 5, 7:22 pm)30.26 "Hg (Feb 5, 7:22 pm)
Low39 °F (Feb 15, 3:53 am)26% (Feb 15, 11:53 am)29.49 "Hg (Feb 17, 11:53 pm)
Average54 °F89%29.99 "Hg
* Reported Feb 5 10:30 am — Feb 20 10:53 am, Escondido, Weather by CustomWeather, © 2017

Note: Actual official high and low records may vary slightly from our data, if they occured in-between our weather recording intervals... More about our weather records

Advertising

Escondido Weather History for the Previous 24 Hours

Scroll right to see more
 ConditionsComfort  
Time TempWeatherWind HumidityBarometerVisibility
10:53 am
Mon, Feb 20
62 °FMostly cloudy.No wind70%30.26 "Hg10 mi
9:53 am59 °FMostly cloudy.No wind72%30.26 "Hg10 mi
8:53 am53 °FMore clouds than sun.No wind83%30.25 "Hg10 mi
8:36 am52 °FMostly cloudy.No wind86%30.26 "Hg10 mi
7:53 am51 °FPassing clouds.No wind89%30.23 "Hg10 mi
6:53 am48 °FOvercast.No wind100%30.22 "Hg10 mi
5:53 am47 °FPassing clouds.No wind100%30.19 "Hg10 mi
4:53 am48 °FOvercast.No wind93%30.19 "Hg10 mi
3:53 am48 °FOvercast.No wind96%30.18 "Hg8 mi
2:53 am48 °FMostly cloudy.No wind96%30.17 "Hg10 mi
1:53 am47 °FMostly cloudy.No wind100%30.16 "Hg7 mi
12:53 am45 °FFog.No wind100%30.17 "Hg5 mi
11:53 pm
Sun, Feb 19
46 °FFog.No wind100%30.17 "Hg4 mi
10:53 pm45 °FFog.3 mph100%30.16 "Hg6 mi
10:09 pm47 °FOvercast.No wind97%30.16 "Hg10 mi
9:53 pm47 °FMostly cloudy.No wind100%30.14 "Hg10 mi
8:53 pm48 °FMostly cloudy.No wind100%30.13 "Hg10 mi
8:41 pm48 °FMostly cloudy.No wind100%30.14 "Hg10 mi
7:53 pm47 °FOvercast.No wind97%30.11 "Hg10 mi
6:53 pm49 °FPassing clouds.3 mph93%30.08 "Hg10 mi
6:18 pm50 °FPassing clouds.No wind93%30.07 "Hg10 mi
4:53 pm52 °FMostly cloudy.3 mph86%30.02 "Hg10 mi
3:53 pm52 °FFog.5 mph86%30.01 "Hg6 mi
3:38 pm52 °FFog.3 mph89%30.02 "Hg6 mi
2:59 pm51 °FFog.7 mph92%30.01 "Hg6 mi
1:53 pm52 °FLight rain. Mostly cloudy.7 mph93%29.98 "Hg7 mi
12:53 pm53 °FMostly cloudy.9 mph89%29.98 "Hg10 mi
12:13 pm51 °FMore clouds than sun.10 mph96%29.99 "Hg8 mi
Weather by CustomWeather, © 2017

See weather overviewHow to use our weather pages